timestamp,wind_dir_avg,wind_spd_max_dir,wind_spd_avg,wind_spd_gust,battery_voltage,lat,long
2018-05-20 00:00:00+00:00,254.0,254.0,6.42,7.49,,47.59359,-54.27349
2018-05-20 00:10:00+00:00,255.0,254.0,6.42,7.12,,47.59359,-54.27349
2018-05-20 00:20:00+00:00,257.0,258.0,7.2,7.96,,47.59359,-54.27349
2018-05-20 00:30:00+00:00,262.0,266.0,6.77,7.41,,47.59359,-54.27349
2018-05-20 00:40:00+00:00,263.0,263.0,6.44,7.13,,47.59359,-54.27349
2018-05-20 00:50:00+00:00,263.0,263.0,5.99,6.5,,47.59359,-54.27349
2018-05-20 01:00:00+00:00,267.0,270.0,5.46,6.39,,47.59359,-54.27349
2018-05-20 01:10:00+00:00,269.0,270.0,5.58,6.47,,47.59359,-54.27349
2018-05-20 01:20:00+00:00,260.0,267.0,4.06,4.72,,47.59359,-54.27349
2018-05-20 01:30:00+00:00,268.0,270.0,4.04,5.44,,47.59359,-54.27349
2018-05-20 01:40:00+00:00,270.0,268.0,5.03,5.47,,47.59359,-54.27349
2018-05-20 01:50:00+00:00,269.0,284.0,4.38,5.44,,47.59359,-54.27349
2018-05-20 02:00:00+00:00,221.0,241.0,1.07,2.46,,47.59359,-54.27349
2018-05-20 02:10:00+00:00,247.0,250.0,3.46,4.17,,47.59359,-54.27349
2018-05-20 02:20:00+00:00,254.0,254.0,3.23,3.85,,47.59359,-54.27349
2018-05-20 02:30:00+00:00,226.0,231.0,3.87,4.74,,47.59359,-54.27349
2018-05-20 02:40:00+00:00,228.0,227.0,5.11,5.85,,47.59359,-54.27349
2018-05-20 02:50:00+00:00,222.0,223.0,5.87,6.57,,47.59359,-54.27349
2018-05-20 03:00:00+00:00,232.0,230.0,5.57,6.36,,47.59359,-54.27349
2018-05-20 03:10:00+00:00,231.0,233.0,5.77,6.24,,47.59359,-54.27349
2018-05-20 03:20:00+00:00,230.0,228.0,5.54,6.01,,47.59359,-54.27349
2018-05-20 03:30:00+00:00,233.0,232.0,5.72,6.94,,47.59359,-54.27349
2018-05-20 03:40:00+00:00,242.0,238.0,6.57,7.57,,47.59359,-54.27349
2018-05-20 03:50:00+00:00,249.0,242.0,6.04,6.87,,47.59359,-54.27349
2018-05-20 04:00:00+00:00,242.0,247.0,5.37,5.94,,47.59359,-54.27349
2018-05-20 04:10:00+00:00,248.0,250.0,4.71,5.42,,47.59359,-54.27349
2018-05-20 04:20:00+00:00,253.0,253.0,6.29,7.07,,47.59359,-54.27349
2018-05-20 04:30:00+00:00,256.0,256.0,5.86,6.34,,47.59359,-54.27349
2018-05-20 04:40:00+00:00,249.0,252.0,4.35,4.85,,47.59359,-54.27349
2018-05-20 04:50:00+00:00,239.0,241.0,4.23,4.99,,47.59359,-54.27349
2018-05-20 05:00:00+00:00,228.0,229.0,5.43,6.13,,47.59359,-54.27349
2018-05-20 05:10:00+00:00,232.0,229.0,5.93,6.69,,47.59359,-54.27349
2018-05-20 05:20:00+00:00,239.0,243.0,5.65,6.63,,47.59359,-54.27349
2018-05-20 05:30:00+00:00,243.0,243.0,6.5,7.18,,47.59359,-54.27349
2018-05-20 05:40:00+00:00,246.0,241.0,6.91,8.34,,47.59359,-54.27349
2018-05-20 05:50:00+00:00,237.0,237.0,6.89,8.5,,47.59359,-54.27349
2018-05-20 06:00:00+00:00,246.0,248.0,5.94,6.73,,47.59359,-54.27349
2018-05-20 06:10:00+00:00,241.0,238.0,6.6,7.47,,47.59359,-54.27349
2018-05-20 06:20:00+00:00,234.0,231.0,5.9,6.78,,47.59359,-54.27349
2018-05-20 06:30:00+00:00,239.0,230.0,4.65,5.59,,47.59359,-54.27349
2018-05-20 06:40:00+00:00,244.0,250.0,4.13,4.89,,47.59359,-54.27349
2018-05-20 06:50:00+00:00,220.0,222.0,4.16,4.58,,47.59359,-54.27349
2018-05-20 07:00:00+00:00,224.0,229.0,5.01,5.64,,47.59359,-54.27349
2018-05-20 07:10:00+00:00,233.0,225.0,4.35,5.36,,47.59359,-54.27349
2018-05-20 07:20:00+00:00,236.0,243.0,3.91,4.52,,47.59359,-54.27349
2018-05-20 07:30:00+00:00,236.0,240.0,4.26,5.07,,47.59359,-54.27349
2018-05-20 07:40:00+00:00,227.0,229.0,5.27,6.08,,47.59359,-54.27349
2018-05-20 07:50:00+00:00,229.0,230.0,4.15,4.57,,47.59359,-54.27349
2018-05-20 08:00:00+00:00,221.0,221.0,6.24,6.95,,47.59359,-54.27349
2018-05-20 08:10:00+00:00,242.0,239.0,4.29,5.44,,47.59359,-54.27349
2018-05-20 08:20:00+00:00,242.0,236.0,5.48,6.52,,47.59359,-54.27349
2018-05-20 08:30:00+00:00,238.0,235.0,5.26,5.81,,47.59359,-54.27349
2018-05-20 08:40:00+00:00,234.0,232.0,5.96,6.61,,47.59359,-54.27349
2018-05-20 08:50:00+00:00,241.0,241.0,6.39,7.03,,47.59359,-54.27349
2018-05-20 09:00:00+00:00,234.0,236.0,6.3,7.15,,47.59359,-54.27349
2018-05-20 09:10:00+00:00,232.0,232.0,6.86,7.28,,47.59359,-54.27349
2018-05-20 09:20:00+00:00,238.0,238.0,6.88,7.68,,47.59359,-54.27349
2018-05-20 09:30:00+00:00,233.0,235.0,6.82,7.53,,47.59359,-54.27349
2018-05-20 09:40:00+00:00,230.0,232.0,7.95,9.21,,47.59359,-54.27349
2018-05-20 09:50:00+00:00,227.0,227.0,8.12,8.67,,47.59359,-54.27349
2018-05-20 10:00:00+00:00,230.0,230.0,8.99,10.33,,47.59359,-54.27349
2018-05-20 10:10:00+00:00,224.0,225.0,8.35,9.02,,47.59359,-54.27349
2018-05-20 10:20:00+00:00,223.0,222.0,8.02,8.67,,47.59359,-54.27349
2018-05-20 10:30:00+00:00,222.0,219.0,8.57,9.64,,47.59359,-54.27349
2018-05-20 10:40:00+00:00,217.0,219.0,8.41,9.3,,47.59359,-54.27349
2018-05-20 10:50:00+00:00,217.0,216.0,8.66,9.59,,47.59359,-54.27349
2018-05-20 11:00:00+00:00,217.0,215.0,8.48,10.03,,47.59359,-54.27349
2018-05-20 11:10:00+00:00,219.0,220.0,10.01,11.43,,47.59359,-54.27349
2018-05-20 11:20:00+00:00,219.0,221.0,10.0,11.11,,47.59359,-54.27349
2018-05-20 11:30:00+00:00,213.0,214.0,8.26,9.15,,47.59359,-54.27349
2018-05-20 11:40:00+00:00,214.0,216.0,8.41,9.29,,47.59359,-54.27349
2018-05-20 11:50:00+00:00,217.0,219.0,9.34,10.66,,47.59359,-54.27349
2018-05-20 12:00:00+00:00,222.0,222.0,9.39,11.1,,47.59359,-54.27349
2018-05-20 12:10:00+00:00,219.0,225.0,9.8,11.31,,47.59359,-54.27349
2018-05-20 12:20:00+00:00,229.0,229.0,9.11,10.15,,47.59359,-54.27349
2018-05-20 12:30:00+00:00,221.0,221.0,9.56,10.75,,47.59359,-54.27349
2018-05-20 12:40:00+00:00,222.0,219.0,10.61,12.06,,47.59359,-54.27349
2018-05-20 12:50:00+00:00,228.0,230.0,10.32,12.05,,47.59359,-54.27349
2018-05-20 13:00:00+00:00,218.0,225.0,9.15,10.5,,47.59359,-54.27349
2018-05-20 13:10:00+00:00,219.0,220.0,7.65,8.31,,47.59359,-54.27349
2018-05-20 13:20:00+00:00,219.0,222.0,7.76,8.28,,47.59359,-54.27349
2018-05-20 13:30:00+00:00,230.0,229.0,6.9,8.83,,47.59359,-54.27349
2018-05-20 13:40:00+00:00,228.0,227.0,7.56,8.79,,47.59359,-54.27349
2018-05-20 13:50:00+00:00,232.0,235.0,8.57,9.8,,47.59359,-54.27349
2018-05-20 14:00:00+00:00,228.0,233.0,9.92,11.01,,47.59359,-54.27349
2018-05-20 14:10:00+00:00,227.0,230.0,10.27,12.29,,47.59359,-54.27349
2018-05-20 14:20:00+00:00,230.0,235.0,8.29,9.82,,47.59359,-54.27349
2018-05-20 14:30:00+00:00,226.0,230.0,11.57,13.43,,47.59359,-54.27349
2018-05-20 14:40:00+00:00,220.0,221.0,11.83,12.97,,47.59359,-54.27349
2018-05-20 14:50:00+00:00,222.0,220.0,11.05,11.75,,47.59359,-54.27349
2018-05-20 15:00:00+00:00,230.0,232.0,8.61,9.81,,47.59359,-54.27349
2018-05-20 15:10:00+00:00,231.0,230.0,7.3,8.42,,47.59359,-54.27349
2018-05-20 15:20:00+00:00,223.0,226.0,9.61,10.45,,47.59359,-54.27349
2018-05-20 15:30:00+00:00,240.0,243.0,7.13,9.27,,47.59359,-54.27349
2018-05-20 15:40:00+00:00,216.0,216.0,11.74,14.58,,47.59359,-54.27349
2018-05-20 15:50:00+00:00,204.0,202.0,10.7,12.58,,47.59359,-54.27349
2018-05-20 16:00:00+00:00,205.0,203.0,12.19,13.63,,47.59359,-54.27349
2018-05-20 16:10:00+00:00,204.0,202.0,14.08,16.95,,47.59359,-54.27349
2018-05-20 16:20:00+00:00,199.0,196.0,17.19,20.25,,47.59359,-54.27349
2018-05-20 16:30:00+00:00,191.0,186.0,17.26,20.73,,47.59359,-54.27349
2018-05-20 16:40:00+00:00,194.0,196.0,16.35,18.98,,47.59359,-54.27349
2018-05-20 16:50:00+00:00,201.0,200.0,15.91,18.74,,47.59359,-54.27349
2018-05-20 17:00:00+00:00,196.0,195.0,16.78,19.49,,47.59359,-54.27349
2018-05-20 17:10:00+00:00,206.0,212.0,15.49,19.35,,47.59359,-54.27349
2018-05-20 17:20:00+00:00,204.0,202.0,14.9,20.26,,47.59359,-54.27349
2018-05-20 17:30:00+00:00,229.0,231.0,15.94,18.67,,47.59359,-54.27349
2018-05-20 17:40:00+00:00,241.0,241.0,15.48,20.83,,47.59359,-54.27349
2018-05-20 17:50:00+00:00,238.0,236.0,15.99,19.39,,47.59359,-54.27349
2018-05-20 18:00:00+00:00,236.0,241.0,15.56,18.08,,47.59359,-54.27349
2018-05-20 18:10:00+00:00,240.0,253.0,15.78,19.3,,47.59359,-54.27349
2018-05-20 18:20:00+00:00,238.0,241.0,15.76,18.38,,47.59359,-54.27349
2018-05-20 18:30:00+00:00,238.0,239.0,14.56,17.72,,47.59359,-54.27349
2018-05-20 18:40:00+00:00,232.0,234.0,13.33,15.56,,47.59359,-54.27349
2018-05-20 18:50:00+00:00,231.0,229.0,14.44,17.04,,47.59359,-54.27349
2018-05-20 19:00:00+00:00,228.0,228.0,16.07,20.22,,47.59359,-54.27349
2018-05-20 19:10:00+00:00,229.0,236.0,16.07,19.66,,47.59359,-54.27349
2018-05-20 19:20:00+00:00,226.0,231.0,16.7,19.47,,47.59359,-54.27349
2018-05-20 19:30:00+00:00,224.0,229.0,14.54,17.02,,47.59359,-54.27349
2018-05-20 19:40:00+00:00,226.0,228.0,14.95,18.43,,47.59359,-54.27349
2018-05-20 19:50:00+00:00,225.0,225.0,14.53,16.5,,47.59359,-54.27349
2018-05-20 20:00:00+00:00,225.0,229.0,13.62,15.73,,47.59359,-54.27349
2018-05-20 20:10:00+00:00,226.0,225.0,14.52,16.26,,47.59359,-54.27349
2018-05-20 20:20:00+00:00,226.0,226.0,14.68,16.39,,47.59359,-54.27349
2018-05-20 20:30:00+00:00,226.0,231.0,13.75,16.25,,47.59359,-54.27349
2018-05-20 20:40:00+00:00,224.0,226.0,13.98,15.72,,47.59359,-54.27349
2018-05-20 20:50:00+00:00,225.0,224.0,12.85,14.35,,47.59359,-54.27349
2018-05-20 21:00:00+00:00,228.0,230.0,11.87,13.55,,47.59359,-54.27349
2018-05-20 21:10:00+00:00,228.0,227.0,11.27,12.61,,47.59359,-54.27349
2018-05-20 21:20:00+00:00,231.0,231.0,12.27,13.71,,47.59359,-54.27349
2018-05-20 21:30:00+00:00,230.0,230.0,12.66,14.05,,47.59359,-54.27349
2018-05-20 21:40:00+00:00,229.0,232.0,9.93,12.12,,47.59359,-54.27349
2018-05-20 21:50:00+00:00,234.0,238.0,9.02,10.25,,47.59359,-54.27349
2018-05-20 22:00:00+00:00,231.0,227.0,8.89,9.85,,47.59359,-54.27349
2018-05-20 22:10:00+00:00,226.0,228.0,9.06,10.14,,47.59359,-54.27349
2018-05-20 22:20:00+00:00,223.0,234.0,8.98,9.97,,47.59359,-54.27349
2018-05-20 22:30:00+00:00,223.0,222.0,10.31,11.37,,47.59359,-54.27349
2018-05-20 22:40:00+00:00,228.0,232.0,9.55,10.66,,47.59359,-54.27349
2018-05-20 22:50:00+00:00,226.0,231.0,10.07,11.58,,47.59359,-54.27349
2018-05-20 23:00:00+00:00,224.0,223.0,9.81,10.62,,47.59359,-54.27349
2018-05-20 23:10:00+00:00,223.0,224.0,9.85,10.59,,47.59359,-54.27349
2018-05-20 23:20:00+00:00,223.0,224.0,9.97,11.03,,47.59359,-54.27349
2018-05-20 23:30:00+00:00,227.0,228.0,8.6,9.67,,47.59359,-54.27349
2018-05-20 23:40:00+00:00,230.0,232.0,9.78,10.82,,47.59359,-54.27349
2018-05-20 23:50:00+00:00,226.0,225.0,9.78,10.85,,47.59359,-54.27349
